User: anonymous   Login
Location: Caltech
(34.1382°N, 118.1253°W)
Time: 20:29:13
(UTC-08:00)
Language:

ADEOS II - Orbit

View from above orbital plane
View from above orbital plane
View from above satellite
View from above satellite

Ground track
Ground track

The orbit data is extracted from the following two-line orbital elements,

1 27597U 02056A   16339.02284651  .00000075  00000-0  47627-4 0  9995
2 27597  98.3437 311.1664 0001382 129.4159 230.7145 14.27252440727585
Epoch (UTC): 04 December 2016 00:32:53
Eccentricity: 0.0001382
inclination: 98.3437°
perigee height: 800 km
apogee height: 802 km
right ascension of ascending node: 311.1664°
argument of perigee: 129.4159°
revolutions per day: 14.27252440
mean anomaly at epoch: 230.7145°
orbit number at epoch: 72758

The dashed part of the orbit path shows where the satellite is in the earth's shadow,  

DLR